Location: Newark
(21.1700°N, 79.6500°E)
Time: 13:36:09
(UTC+00:00)

N. Korean satellite - Pass Details

Date: 14 December 2019
Orbit: 454 x 507 km, 97.2° (Epoch: 24 January)

Event Time Altitude Azimuth Distance (km) Brightness Sun altitude
Rises 00:15:07 0° 13° (NNE) 2,490 10.1 -12.7°
Reaches altitude 10° 00:17:10 10° 15° (NNE) 1,606 9.1 -12.2°
Maximum altitude 00:20:36 76° 101° (E) 475 6.6 -11.5°
Drops below altitude 10° 00:23:59 10° 187° (S) 1,584 9.4 -10.7°
Sets 00:26:00 0° 189° (S) 2,452 10.3 -10.3°
